SCP
0 0 0 0 0 0 0 0 0 0 0 0 0 0 0 0 0 0 0 0 0 0 0 0 0 0 0 0 0 0 0 0 0 0 0 0 0 0 0 0 0 0 0 0 0
0 0 0 0 0 0 0 0 0 0 0 0 0 0 0 0 0 0 0 0 0 0 0 0 0 0 0 0 0 0 0 0 0 0 0 0 0 0 0 0 0 0 0 0 0
0 0 0 0 0 0 0 0 0 0 0 0 0 0 0 0 0 0 0 0 0 0 0 0 0 0 0 0 0 0 0 0 0 0 0 0 0 0 0 0 0 0 0 0 0
0 0 0 0 0 0 0 0 0 0 0 0 0 0 0 0 0 0 0 0 0 0 0 0 0 0 0 0 0 0 0 0 0 0 0 0 0 0 0 0 0 0 0 0 0
0 0 0 0 0 0 0 0 0 0 0 0 0 0 0 0 0 0 0 0 0 0 0 0 0 0 0 0 0 0 0 0 0 0 0 0 0 0 0 0 0 0 0 0 0
0 0 0 0 0 0 0 0 0 0 0 0 0 0 0 0 0 0 0 0 0 0 0 0 0 0 0 0 0 0 0 0 0 0 0 0 0 0 0 0 0 0 0 0 0
0 0 0 0 0 0 0 0 0 0 -0 0 0 0 0 0 0 0 0 0 0 0 0 0 0 0 0 0 0 0 0 0 0 0 0 0 0 0 0 0 0 0 0 0 -0
0 0 0 0 0 0 0 0 -0 -0 -0 -0 0 0 0 0 0 0 0 0 0 0 0 0 0 0 0 0 0 0 0 0 0 0 0 0 0 0 0 0 0 0 0 0 0
0 0 0 0 0 0 0 0 -0 -0 0 0 0 0 0 0 0 0 0 0 0 0 0 0 0 0 0 0 0 0 0 0 0 0 0 0 0 0 0 0 0 0 0 0 0
0 0 0 0 0 0 0 0 0 0 0 0 0 0 0 0 0 0 0 0 0 0 0 0 0 0 0 0 0 0 0 0 0 0 0 0 0 0 0 0 0 0 0 0 0
0 0 0 0 0 0 0 0 0 0 0 0 0 0 0 0 0 0 0 0 0 0 0 0 0 0 0 0 0 0 0 0 0 0 0 0 0 0 0 0 0 0 0 0 0
0 0 0 0 0 0 0 0 0 0 0 0 0 0 0 0 0 0 0 0 0 0 0 0 0 0 0 0 0 0 0 0 0 0 0 0 0 0 0 0 0 0 0 0 0
0 0 0 0 0 0 0 0 0 -0 0 0 0 0 0 0 0 0 0 0 0 0 0 0 0 0 0 0 0 0 0 0 0 0 0 0 0 0 0 0 0 0 0 0 0
0 0 0 0 0 0 0 0 0 0 0 0 0 0 0 0 0 0 0 0 0 0 0 0 0 0 0 0 0 0 0 0 0 0 0 0 0 0 0 0 0 0 0 0 0
0 0 0 0 0 0 0 0 0 0 0 0 0 0 0 0 0 0 0 0 0 0 0 0 0 0 0 0 0 0 0 0 0 0 0 0 0 0 0 0 0 0 0 0 0
0 0 0 0 0 0 0 0 0 0 0 0 0 0 0 0 0 0 0 0 0 0 0 0 0 0 0 0 0 0 0 0 0 0 0 0 0 0 0 0 0 0 0 0 0
0 0 0 0 0 0 0 0 0 0 0 0 0 0 0 0 0 0 0 0 0 0 0 0 0 0 0 0 0 0 0 0 0 0 0 0 0 0 0 0 0 0 0 0 0
0 0 0 0 0 0 0 0 0 0 0 0 0 0 0 0 0 0 0 0 0 0 0 0 0 0 0 0 0 0 0 0 0 0 0 0 0 0 0 0 0 0 0 0 0
0 0 0 0 0 0 0 0 0 0 0 0 0 0 0 0 0 0 0 0 0 0 0 0 0 0 0 0 0 0 0 0 0 0 0 0 0 0 0 0 0 0 0 0 0
0 0 0 0 0 0 0 0 0 0 0 0 0 0 0 0 0 0 0 0 0 0 0 0 0 0 0 0 0 0 0 0 0 0 0 0 0 0 0 0 0 0 0 0 0
0 0 0 0 0 0 0 0 0 0 0 0 0 0 0 0 0 0 0 0 0 0 0 0 0 0 0 0 0 0 0 0 0 0 0 0 0 0 0 0 0 0 0 0 0
0 0 0 0 0 0 0 0 0 0 0 0 0 0 0 0 0 0 0 0 0 0 0 0 0 0 0 0 0 0 0 0 0 0 0 0 0 0 0 0 0 0 0 0 0
0 0 0 0 0 0 0 0 0 0 0 0 0 0 0 0 0 0 0 0 0 0 0 0 0 0 0 0 0 0 0 0 0 0 0 0 0 0 0 0 0 0 0 0 0
0 0 0 0 0 0 0 0 0 0 0 0 0 0 0 0 0 0 0 0 0 0 0 0 0 0 0 0 0 0 0 0 0 0 0 0 0 0 0 0 0 0 0 0 0
0 0 0 0 0 0 0 0 0 0 0 0 0 0 0 0 0 0 0 0 0 0 0 0 0 0 0 0 0 0 0 0 0 0 0 0 0 0 0 0 0 0 0 0 0
0 0 0 0 0 0 0 0 0 0 0 0 0 0 0 0 0 0 0 0 0 0 0 0 0 0 0 0 0 0 0 0 0 0 0 0 0 0 0 0 0 0 0 0 0
0 0 0 0 0 0 0 0 0 0 0 0 0 0 0 0 0 0 0 0 0 0 0 0 0 0 0 0 0 0 0 0 0 0 0 0 0 0 0 0 0 0 0 0 0
Wind_Speed_500mb
20 22 24 25 25 23 21 21 22 22 22 22 23 22 17 13 11 19 11 20 21 20 17 10 3 5 9 10 11 10 7 5 8 7 5 10 12 6 15 19 14 6 5 7 10
21 23 23 24 24 22 21 21 20 21 21 21 21 22 18 14 8 15 19 21 19 19 14 7 6 12 7 6 6 7 6 13 4 2 4 12 4 18 12 14 15 32 26 20 27
16 20 22 23 22 21 21 20 20 19 19 19 19 18 13 14 6 11 18 19 17 15 9 6 9 10 7 7 5 4 9 4 5 4 10 10 12 5 6 11 19 13 31 37 34
15 16 20 21 22 22 21 19 19 20 20 20 19 17 11 12 3 13 18 18 17 17 9 2 8 7 6 8 3 4 5 3 4 6 13 13 23 14 24 31 35 38 34 27 23
15 16 17 21 22 22 22 21 20 20 21 21 18 15 11 6 4 13 16 14 14 11 8 6 6 6 9 4 0 3 3 7 10 26 29 28 26 21 39 55 40 39 27 22 30
14 15 16 19 21 22 22 22 21 21 21 20 17 13 10 4 6 13 15 12 14 14 14 9 8 9 10 3 2 4 10 20 10 7 7 11 13 8 13 12 24 20 26 34 46
15 14 16 19 20 21 21 19 20 21 22 19 15 11 9 4 5 10 14 12 13 14 12 13 9 4 6 4 6 7 11 11 1 4 1 14 18 17 31 24 20 26 43 59 71
17 18 18 20 23 23 23 22 22 22 20 16 12 7 6 4 4 8 11 8 8 9 10 9 8 10 5 3 7 5 5 7 2 11 3 9 21 12 14 15 34 54 68 62 35
21 23 24 26 28 28 26 26 26 20 15 13 10 7 6 5 5 10 11 8 3 5 6 5 3 5 4 6 7 11 4 4 15 5 8 3 19 20 53 45 47 58 61 45 33
22 23 26 29 31 31 29 28 20 15 11 12 11 6 5 3 9 10 12 7 4 5 3 6 5 6 7 6 7 4 5 7 10 6 9 19 41 47 73 38 47 58 46 34 30
20 22 24 29 32 34 31 21 12 6 10 10 8 9 10 12 13 5 11 6 1 5 5 10 7 7 6 1 5 7 2 8 9 6 11 17 28 49 61 31 43 50 30 25 28
21 21 23 26 29 32 27 15 13 16 18 13 15 13 13 12 5 4 8 3 3 2 4 8 6 4 8 4 5 2 3 10 12 3 7 19 43 53 24 13 22 21 16 24 28
28 23 25 23 25 19 21 18 19 22 9 6 6 4 5 6 3 2 5 1 4 5 3 8 2 8 3 1 3 5 7 5 9 13 4 21 15 13 8 6 9 19 25 32 27
30 33 30 25 17 16 15 18 18 21 8 5 1 2 3 1 2 2 3 2 3 5 4 7 2 5 1 5 7 7 5 2 10 10 5 12 13 15 10 18 14 37 31 32 22
14 28 35 27 11 12 12 14 18 14 9 3 2 2 3 4 1 2 2 2 6 6 7 3 7 5 4 7 7 6 2 5 2 5 10 10 4 18 9 12 18 17 36 24 27
17 9 25 25 19 17 7 7 11 10 12 2 1 1 0 1 3 1 1 1 4 5 2 7 1 5 6 4 1 8 2 7 6 7 4 8 7 11 8 12 7 7 21 27 25
18 11 10 12 13 12 7 5 6 6 6 11 5 0 1 3 2 2 2 3 7 5 4 4 5 1 2 3 4 4 8 9 11 8 10 6 3 24 16 14 13 18 39 36 30
24 16 15 9 8 16 5 9 7 4 9 6 5 3 6 7 2 0 1 6 7 6 3 5 10 11 8 6 7 4 8 9 11 5 11 4 14 13 12 20 25 36 39 43 31
22 23 27 21 15 14 13 2 7 3 5 6 6 3 6 3 4 2 12 9 12 17 15 7 7 4 1 3 4 4 3 5 12 3 5 6 15 24 16 18 24 39 25 32 41
23 26 25 32 29 22 5 13 14 18 19 8 5 6 6 5 2 3 6 7 6 13 3 7 4 3 1 4 7 6 12 6 6 4 12 12 15 12 11 11 8 12 22 50 90
20 14 14 27 25 16 7 11 9 15 14 13 5 6 5 3 6 6 7 5 1 5 7 7 6 3 3 14 15 4 4 5 7 8 9 8 16 17 18 13 14 12 43 64 86
18 5 25 36 9 9 5 10 8 8 12 3 8 12 12 6 5 8 11 10 3 14 11 8 6 7 16 4 1 6 12 12 8 11 7 4 20 8 17 12 12 25 51 78 78
11 16 35 48 10 7 3 6 8 11 10 13 12 13 9 15 5 8 5 4 9 8 10 7 3 5 13 8 7 9 10 8 7 5 16 9 21 2 8 9 25 48 69 81 91
12 5 13 41 21 6 9 9 10 22 8 12 8 9 2 4 6 4 6 2 3 5 4 18 5 12 12 6 6 10 11 20 12 6 11 27 63 56 43 42 39 55 70 79 85
18 12 21 11 18 15 14 9 11 11 19 24 7 17 14 11 8 11 10 4 5 6 6 6 11 5 8 12 9 21 14 20 34 40 20 63 37 60 49 45 47 66 74 67 81
20 12 15 4 9 31 31 39 41 19 19 13 16 21 28 23 24 16 13 12 11 5 11 5 7 3 10 8 8 24 27 37 49 48 44 61 69 63 81 76 39 51 56 62 76
40 43 9 18 11 16 30 49 41 29 30 38 32 19 23 43 37 16 21 15 12 14 17 11 8 3 13 7 15 29 30 53 26 15 32 38 56 36 33 30 27 44 62 55 73
Wind_Direction_500mb
7 7 5 1 360 359 356 351 345 345 345 343 346 346 345 347 4 8 4 10 8 13 7 359 2 98 131 134 129 133 64 237 257 184 264 5 8 335 305 282 295 255 254 250 258
3 4 5 4 359 354 352 346 340 336 336 337 338 337 340 337 327 356 8 5 358 2 8 5 74 122 89 112 106 101 141 224 242 298 281 311 285 314 312 295 284 277 270 244 278
349 357 359 359 357 353 347 342 333 328 327 330 331 330 329 335 314 342 355 355 356 356 360 27 121 120 102 124 39 151 201 214 269 291 327 302 289 259 266 289 281 285 298 296 295
338 347 353 353 350 346 342 336 330 326 326 329 330 330 321 332 258 346 348 353 357 360 6 72 154 128 99 143 168 209 206 219 301 299 314 301 301 278 220 254 272 287 298 303 307
340 345 348 347 345 342 336 330 325 322 323 325 327 325 328 326 330 347 349 359 359 358 31 112 141 122 136 141 323 208 332 289 276 291 285 282 266 263 269 279 284 274 265 289 306
350 345 344 346 343 337 332 327 321 316 316 319 321 319 331 309 319 347 353 356 359 10 32 64 96 104 102 97 139 295 288 285 286 282 289 299 270 331 248 265 285 271 265 274 292
355 349 342 342 340 334 328 321 311 306 307 309 313 309 297 246 312 339 355 353 357 18 37 61 85 114 123 100 346 321 327 325 110 343 329 327 292 226 269 269 284 292 296 296 296
359 354 345 343 341 337 332 324 313 304 303 302 300 289 269 246 316 336 350 351 357 26 37 58 87 91 71 69 18 41 58 357 231 0 31 64 276 265 274 287 297 299 296 300 291
348 349 347 343 342 340 336 329 317 306 303 298 284 279 267 258 291 327 344 349 356 358 9 41 73 69 60 76 12 5 248 304 318 40 359 144 281 259 287 288 290 292 294 297 291
338 340 341 341 339 338 338 330 315 306 309 300 278 293 258 300 313 311 326 324 335 350 346 7 32 54 32 82 235 254 320 300 251 314 358 277 264 276 283 282 275 282 284 287 291
321 328 334 338 338 338 343 347 337 322 311 261 277 280 287 293 294 277 322 306 353 40 20 16 30 243 200 140 113 116 161 257 254 290 334 270 275 286 287 263 253 264 260 278 288
296 310 322 329 336 338 348 16 7 323 308 270 253 259 274 295 303 300 318 259 97 158 14 7 237 153 129 114 87 97 312 277 294 306 320 295 290 279 296 250 225 221 257 280 282
285 297 306 316 329 345 355 355 345 340 288 290 236 251 258 272 270 284 3 113 91 135 133 214 326 145 127 130 337 233 196 247 241 321 234 306 293 316 279 310 295 251 270 274 275
270 276 275 289 317 340 349 348 342 336 42 262 257 330 198 228 327 327 75 107 50 214 183 231 148 153 18 283 152 292 188 290 300 30 271 27 283 301 353 314 299 276 265 261 279
264 279 267 260 257 301 320 335 340 344 348 26 259 198 153 155 335 354 40 161 177 170 115 310 176 171 204 244 177 260 358 310 349 99 33 321 66 274 4 302 270 252 256 255 307
279 316 276 277 269 249 268 319 336 41 258 333 125 324 349 209 144 332 288 43 107 113 76 247 262 204 208 72 293 336 338 42 57 93 350 241 124 270 237 210 259 265 250 281 304
264 312 358 22 315 290 236 6 37 177 352 301 316 356 271 222 272 95 79 289 193 51 339 206 202 129 166 124 40 62 42 327 341 360 239 142 11 250 268 237 226 244 272 288 299
263 271 245 239 70 15 138 57 178 161 244 341 358 17 254 155 216 173 125 263 216 92 99 143 311 176 167 209 179 127 137 157 256 286 284 17 237 249 236 273 257 257 277 282 291
262 263 250 256 242 197 120 123 231 240 349 342 304 202 286 279 210 212 209 220 206 179 173 132 287 35 201 138 123 143 165 128 102 114 8 235 274 279 288 267 256 263 276 288 313
253 246 240 247 227 180 116 213 212 201 151 114 274 192 273 277 15 73 205 195 199 188 139 178 347 13 170 105 46 185 146 75 7 329 291 277 277 238 285 258 241 292 299 310 319
220 234 244 191 188 178 216 222 238 236 155 157 204 299 261 317 211 248 249 285 137 109 90 125 115 254 95 201 178 143 210 69 113 155 199 300 268 210 230 236 239 267 305 313 312
203 227 185 183 174 213 194 181 223 189 209 95 159 185 209 128 268 258 240 234 202 150 166 183 153 221 216 110 66 192 193 164 139 234 235 199 267 216 226 218 195 290 306 315 311
216 200 187 187 222 207 243 255 240 173 202 178 222 217 179 185 233 222 232 300 217 177 157 185 251 351 332 14 10 225 197 179 102 91 204 163 269 301 252 230 273 316 313 313 319
208 172 173 203 228 195 172 214 234 219 230 197 185 148 125 206 204 224 262 26 325 241 141 148 192 194 212 192 130 213 200 200 168 160 250 222 268 273 272 292 300 306 306 311 319
221 228 188 201 222 202 173 188 193 218 216 207 237 197 166 225 189 225 226 229 238 221 152 158 228 206 250 238 231 241 213 197 216 220 222 273 247 270 284 294 297 301 299 311 320
222 206 181 204 190 195 214 236 240 227 174 221 232 189 198 213 196 192 171 182 206 169 167 180 263 78 281 305 257 268 239 226 238 239 250 258 276 266 279 281 290 293 303 322 320
231 246 228 220 174 188 217 231 240 221 223 230 208 207 211 231 223 233 220 198 187 176 177 168 161 108 271 336 322 281 212 216 221 205 223 242 249 280 278 280 288 303 318 322 324
Wind_Speed_850mb
20 22 24 25 25 23 21 21 22 22 22 22 23 22 17 13 11 19 11 20 21 20 17 10 3 5 9 10 11 10 7 5 8 7 5 10 12 6 15 19 14 6 5 7 10
21 23 23 24 24 22 21 21 20 21 21 21 21 22 18 14 8 15 19 21 19 19 14 7 6 12 7 6 6 7 6 13 4 2 4 12 4 18 12 14 15 32 26 20 27
16 20 22 23 22 21 21 20 20 19 19 19 19 18 13 14 6 11 18 19 17 15 9 6 9 10 7 7 5 4 9 4 5 4 10 10 12 5 6 11 19 13 31 37 34
15 16 20 21 22 22 21 19 19 20 20 20 19 17 11 12 3 13 18 18 17 17 9 2 8 7 6 8 3 4 5 3 4 6 13 13 23 14 24 31 35 38 34 27 23
15 16 17 21 22 22 22 21 20 20 21 21 18 15 11 6 4 13 16 14 14 11 8 6 6 6 9 4 0 3 3 7 10 26 29 28 26 21 39 55 40 39 27 22 30
14 15 16 19 21 22 22 22 21 21 21 20 17 13 10 4 6 13 15 12 14 14 14 9 8 9 10 3 2 4 10 20 10 7 7 11 13 8 13 12 24 20 26 34 46
15 14 16 19 20 21 21 19 20 21 22 19 15 11 9 4 5 10 14 12 13 14 12 13 9 4 6 4 6 7 11 11 1 4 1 14 18 17 31 24 20 26 43 59 71
17 18 18 20 23 23 23 22 22 22 20 16 12 7 6 4 4 8 11 8 8 9 10 9 8 10 5 3 7 5 5 7 2 11 3 9 21 12 14 15 34 54 68 62 35
21 23 24 26 28 28 26 26 26 20 15 13 10 7 6 5 5 10 11 8 3 5 6 5 3 5 4 6 7 11 4 4 15 5 8 3 19 20 53 45 47 58 61 45 33
22 23 26 29 31 31 29 28 20 15 11 12 11 6 5 3 9 10 12 7 4 5 3 6 5 6 7 6 7 4 5 7 10 6 9 19 41 47 73 38 47 58 46 34 30
20 22 24 29 32 34 31 21 12 6 10 10 8 9 10 12 13 5 11 6 1 5 5 10 7 7 6 1 5 7 2 8 9 6 11 17 28 49 61 31 43 50 30 25 28
21 21 23 26 29 32 27 15 13 16 18 13 15 13 13 12 5 4 8 3 3 2 4 8 6 4 8 4 5 2 3 10 12 3 7 19 43 53 24 13 22 21 16 24 28
28 23 25 23 25 19 21 18 19 22 9 6 6 4 5 6 3 2 5 1 4 5 3 8 2 8 3 1 3 5 7 5 9 13 4 21 15 13 8 6 9 19 25 32 27
30 33 30 25 17 16 15 18 18 21 8 5 1 2 3 1 2 2 3 2 3 5 4 7 2 5 1 5 7 7 5 2 10 10 5 12 13 15 10 18 14 37 31 32 22
14 28 35 27 11 12 12 14 18 14 9 3 2 2 3 4 1 2 2 2 6 6 7 3 7 5 4 7 7 6 2 5 2 5 10 10 4 18 9 12 18 17 36 24 27
17 9 25 25 19 17 7 7 11 10 12 2 1 1 0 1 3 1 1 1 4 5 2 7 1 5 6 4 1 8 2 7 6 7 4 8 7 11 8 12 7 7 21 27 25
18 11 10 12 13 12 7 5 6 6 6 11 5 0 1 3 2 2 2 3 7 5 4 4 5 1 2 3 4 4 8 9 11 8 10 6 3 24 16 14 13 18 39 36 30
24 16 15 9 8 16 5 9 7 4 9 6 5 3 6 7 2 0 1 6 7 6 3 5 10 11 8 6 7 4 8 9 11 5 11 4 14 13 12 20 25 36 39 43 31
22 23 27 21 15 14 13 2 7 3 5 6 6 3 6 3 4 2 12 9 12 17 15 7 7 4 1 3 4 4 3 5 12 3 5 6 15 24 16 18 24 39 25 32 41
23 26 25 32 29 22 5 13 14 18 19 8 5 6 6 5 2 3 6 7 6 13 3 7 4 3 1 4 7 6 12 6 6 4 12 12 15 12 11 11 8 12 22 50 90
20 14 14 27 25 16 7 11 9 15 14 13 5 6 5 3 6 6 7 5 1 5 7 7 6 3 3 14 15 4 4 5 7 8 9 8 16 17 18 13 14 12 43 64 86
18 5 25 36 9 9 5 10 8 8 12 3 8 12 12 6 5 8 11 10 3 14 11 8 6 7 16 4 1 6 12 12 8 11 7 4 20 8 17 12 12 25 51 78 78
11 16 35 48 10 7 3 6 8 11 10 13 12 13 9 15 5 8 5 4 9 8 10 7 3 5 13 8 7 9 10 8 7 5 16 9 21 2 8 9 25 48 69 81 91
12 5 13 41 21 6 9 9 10 22 8 12 8 9 2 4 6 4 6 2 3 5 4 18 5 12 12 6 6 10 11 20 12 6 11 27 63 56 43 42 39 55 70 79 85
18 12 21 11 18 15 14 9 11 11 19 24 7 17 14 11 8 11 10 4 5 6 6 6 11 5 8 12 9 21 14 20 34 40 20 63 37 60 49 45 47 66 74 67 81
20 12 15 4 9 31 31 39 41 19 19 13 16 21 28 23 24 16 13 12 11 5 11 5 7 3 10 8 8 24 27 37 49 48 44 61 69 63 81 76 39 51 56 62 76
40 43 9 18 11 16 30 49 41 29 30 38 32 19 23 43 37 16 21 15 12 14 17 11 8 3 13 7 15 29 30 53 26 15 32 38 56 36 33 30 27 44 62 55 73
Wind_Direction_850mb
7 7 5 1 360 359 356 351 345 345 345 343 346 346 345 347 4 8 4 10 8 13 7 359 2 98 131 134 129 133 64 237 257 184 264 5 8 335 305 282 295 255 254 250 258
3 4 5 4 359 354 352 346 340 336 336 337 338 337 340 337 327 356 8 5 358 2 8 5 74 122 89 112 106 101 141 224 242 298 281 311 285 314 312 295 284 277 270 244 278
349 357 359 359 357 353 347 342 333 328 327 330 331 330 329 335 314 342 355 355 356 356 360 27 121 120 102 124 39 151 201 214 269 291 327 302 289 259 266 289 281 285 298 296 295
338 347 353 353 350 346 342 336 330 326 326 329 330 330 321 332 258 346 348 353 357 360 6 72 154 128 99 143 168 209 206 219 301 299 314 301 301 278 220 254 272 287 298 303 307
340 345 348 347 345 342 336 330 325 322 323 325 327 325 328 326 330 347 349 359 359 358 31 112 141 122 136 141 323 208 332 289 276 291 285 282 266 263 269 279 284 274 265 289 306
350 345 344 346 343 337 332 327 321 316 316 319 321 319 331 309 319 347 353 356 359 10 32 64 96 104 102 97 139 295 288 285 286 282 289 299 270 331 248 265 285 271 265 274 292
355 349 342 342 340 334 328 321 311 306 307 309 313 309 297 246 312 339 355 353 357 18 37 61 85 114 123 100 346 321 327 325 110 343 329 327 292 226 269 269 284 292 296 296 296
359 354 345 343 341 337 332 324 313 304 303 302 300 289 269 246 316 336 350 351 357 26 37 58 87 91 71 69 18 41 58 357 231 0 31 64 276 265 274 287 297 299 296 300 291
348 349 347 343 342 340 336 329 317 306 303 298 284 279 267 258 291 327 344 349 356 358 9 41 73 69 60 76 12 5 248 304 318 40 359 144 281 259 287 288 290 292 294 297 291
338 340 341 341 339 338 338 330 315 306 309 300 278 293 258 300 313 311 326 324 335 350 346 7 32 54 32 82 235 254 320 300 251 314 358 277 264 276 283 282 275 282 284 287 291
321 328 334 338 338 338 343 347 337 322 311 261 277 280 287 293 294 277 322 306 353 40 20 16 30 243 200 140 113 116 161 257 254 290 334 270 275 286 287 263 253 264 260 278 288
296 310 322 329 336 338 348 16 7 323 308 270 253 259 274 295 303 300 318 259 97 158 14 7 237 153 129 114 87 97 312 277 294 306 320 295 290 279 296 250 225 221 257 280 282
285 297 306 316 329 345 355 355 345 340 288 290 236 251 258 272 270 284 3 113 91 135 133 214 326 145 127 130 337 233 196 247 241 321 234 306 293 316 279 310 295 251 270 274 275
270 276 275 289 317 340 349 348 342 336 42 262 257 330 198 228 327 327 75 107 50 214 183 231 148 153 18 283 152 292 188 290 300 30 271 27 283 301 353 314 299 276 265 261 279
264 279 267 260 257 301 320 335 340 344 348 26 259 198 153 155 335 354 40 161 177 170 115 310 176 171 204 244 177 260 358 310 349 99 33 321 66 274 4 302 270 252 256 255 307
279 316 276 277 269 249 268 319 336 41 258 333 125 324 349 209 144 332 288 43 107 113 76 247 262 204 208 72 293 336 338 42 57 93 350 241 124 270 237 210 259 265 250 281 304
264 312 358 22 315 290 236 6 37 177 352 301 316 356 271 222 272 95 79 289 193 51 339 206 202 129 166 124 40 62 42 327 341 360 239 142 11 250 268 237 226 244 272 288 299
263 271 245 239 70 15 138 57 178 161 244 341 358 17 254 155 216 173 125 263 216 92 99 143 311 176 167 209 179 127 137 157 256 286 284 17 237 249 236 273 257 257 277 282 291
262 263 250 256 242 197 120 123 231 240 349 342 304 202 286 279 210 212 209 220 206 179 173 132 287 35 201 138 123 143 165 128 102 114 8 235 274 279 288 267 256 263 276 288 313
253 246 240 247 227 180 116 213 212 201 151 114 274 192 273 277 15 73 205 195 199 188 139 178 347 13 170 105 46 185 146 75 7 329 291 277 277 238 285 258 241 292 299 310 319
220 234 244 191 188 178 216 222 238 236 155 157 204 299 261 317 211 248 249 285 137 109 90 125 115 254 95 201 178 143 210 69 113 155 199 300 268 210 230 236 239 267 305 313 312
203 227 185 183 174 213 194 181 223 189 209 95 159 185 209 128 268 258 240 234 202 150 166 183 153 221 216 110 66 192 193 164 139 234 235 199 267 216 226 218 195 290 306 315 311
216 200 187 187 222 207 243 255 240 173 202 178 222 217 179 185 233 222 232 300 217 177 157 185 251 351 332 14 10 225 197 179 102 91 204 163 269 301 252 230 273 316 313 313 319
208 172 173 203 228 195 172 214 234 219 230 197 185 148 125 206 204 224 262 26 325 241 141 148 192 194 212 192 130 213 200 200 168 160 250 222 268 273 272 292 300 306 306 311 319
221 228 188 201 222 202 173 188 193 218 216 207 237 197 166 225 189 225 226 229 238 221 152 158 228 206 250 238 231 241 213 197 216 220 222 273 247 270 284 294 297 301 299 311 320
222 206 181 204 190 195 214 236 240 227 174 221 232 189 198 213 196 192 171 182 206 169 167 180 263 78 281 305 257 268 239 226 238 239 250 258 276 266 279 281 290 293 303 322 320
231 246 228 220 174 188 217 231 240 221 223 230 208 207 211 231 223 233 220 198 187 176 177 168 161 108 271 336 322 281 212 216 221 205 223 242 249 280 278 280 288 303 318 322 324